Weather History for Lumberton, NC

Change the Weather History Date:

Thursday, November 24, 2011

  Actual Average Record
Temperature  
Mean Temperature 51 °F 52 °F  
Max Temperature 64 °F 64 °F 77 °F (1998)
Min Temperature 37 °F 39 °F 22 °F (2013)
Degree Days  
Heating Degree Days 14 13  
Month to date heating degree days 224 248  
Since 1 July heating degree days 398 380  
Cooling Degree Days 0 0  
Month to date cooling degree days 18 10  
Year to date cooling degree days 2315 1904  
Growing Degree Days 1 (Base 50)    
Moisture  
Dew Point 35 °F    
Average Humidity 62    
Maximum Humidity 92    
Minimum Humidity 32    
Precipitation  
Precipitation 0.00 in 0.10 in 1.04 in (2001)
Month to date precipitation 1.40 2.26  
Year to date precipitation 38.80 40.02  
Sea Level Pressure  
Sea Level Pressure 30.29 in    
Wind  
Wind Speed 4 mph (NNW)    
Max Wind Speed 16 mph    
Max Gust Speed 26 mph    
Visibility 10 miles    
Events      
T = Trace of Precipitation, MM = Missing Value Source: NWS Daily Summary

Daily Weather History Graph

Daily Weather History Graph

Search for Another Location

Airport:

Trip Planner

Search our weather history database for the weather conditions in past years. The results will help you decide how hot, cold, wet, or windy it might be!

Date:

Astronomy

Nov. 24, 2011 Rise Set
Actual Time 6:58 AM EST 5:07 PM EST
Civil Twilight 6:31 AM EST 5:34 PM EST
Nautical Twilight 6:00 AM EST 6:05 PM EST
Astronomical Twilight 5:30 AM EST 6:35 PM EST
Moon 6:13 AM EST (11/24) 4:37 PM EST (11/24)
Length of Visible Light 11h 03m
Length of Day
10h 08m
Waning Crescent, 0% of the Moon is Illuminated
Nov 24
Waning Crescent
Nov 25
New
Dec 2
First Quarter
Dec 10
Full
Dec 17
Last Quarter

Hourly Weather History & Observations

Time (EST) Temp. Windchill Dew Point Humidity Pressure Visibility Wind Dir Wind Speed Gust Speed Precip Events Conditions
12:54 AM 46.9 °F - 36.0 °F 66% 30.14 in 10.0 mi WNW 5.8 mph - N/A   Clear
1:54 AM 46.0 °F 41.9 °F 36.0 °F 68% 30.16 in 10.0 mi NW 8.1 mph - N/A   Clear
2:54 AM 45.0 °F 41.8 °F 36.0 °F 71% 30.17 in 10.0 mi WNW 5.8 mph - N/A   Clear
3:54 AM 44.1 °F 40.8 °F 35.1 °F 71% 30.18 in 10.0 mi NW 5.8 mph - N/A   Clear
4:54 AM 42.1 °F 39.2 °F 35.1 °F 76% 30.21 in 10.0 mi NW 4.6 mph - N/A   Clear
5:54 AM 41.0 °F 38.0 °F 35.1 °F 79% 30.24 in 10.0 mi WNW 4.6 mph - N/A   Clear
6:54 AM 39.0 °F - 35.1 °F 86% 30.27 in 10.0 mi Calm Calm - N/A   Clear
7:54 AM 45.0 °F 41.8 °F 35.1 °F 68% 30.29 in 10.0 mi NNW 5.8 mph - N/A   Clear
8:54 AM 50.0 °F - 35.1 °F 57% 30.31 in 10.0 mi North 11.5 mph - N/A   Clear
9:54 AM 55.0 °F - 36.0 °F 49% 30.34 in 10.0 mi NNE 11.5 mph - N/A   Clear
10:54 AM 57.9 °F - 33.1 °F 39% 30.34 in 10.0 mi NNE 10.4 mph - N/A   Clear
11:54 AM 60.1 °F - 30.9 °F 33% 30.32 in 10.0 mi NNE 9.2 mph - N/A   Clear
12:54 PM 61.0 °F - 33.1 °F 35% 30.32 in 10.0 mi Variable 5.8 mph 16.1 mph N/A   Clear
1:54 PM 62.1 °F - 32.0 °F 32% 30.30 in 10.0 mi NNE 4.6 mph - N/A   Clear
3:54 PM 63.0 °F - 32.0 °F 31% 30.31 in 10.0 mi North 4.6 mph - N/A   Clear
4:54 PM 61.0 °F - 34.0 °F 36% 30.31 in 10.0 mi Calm Calm - N/A   Clear
5:54 PM 50.0 °F - 39.0 °F 66% 30.33 in 10.0 mi Calm Calm - N/A   Clear
6:54 PM 45.0 °F - 41.0 °F 86% 30.35 in 10.0 mi Calm Calm - N/A   Clear
7:54 PM 43.0 °F - 39.0 °F 86% 30.35 in 10.0 mi Calm Calm - N/A   Clear
8:54 PM 42.1 °F - 37.9 °F 85% 30.36 in 10.0 mi Calm Calm - N/A   Clear
9:54 PM 39.9 °F - 37.9 °F 93% 30.38 in 10.0 mi Calm Calm - N/A   Clear
10:54 PM 37.9 °F - 36.0 °F 93% 30.37 in 8.0 mi Calm Calm - N/A   Clear